DLH11EM LSZH-EDDV

Flight info

Callsign DLH11EM
Flight time 1h 2m
Altitude 34000
Route DEGES1T DEGES Z1 ETAGO DCT HAREM/N0463F330 DCT LOHRE DCT MASEK/N0465F340 Z99 ELNAT P605 WERRA WERRA1Z
Aircraft A359/H-SDE2E3GHIJ3J4J5LM1ORWXY/LB1D1

Departure

Time 2026-04-30 10:27
Airport Zürich Airport (LSZH)

Arrival

Time 2026-04-30 11:30
Airport Hannover Airport (EDDV)
Time Latitude Longitude Altitude Speed Heading
2026-04-30 09:48 47.45173 8.55805 1418 ft 0 kts 187°
2026-04-30 10:14 47.45170 8.55805 1420 ft 0 kts 187°
2026-04-30 10:16 47.45180 8.55806 1413 ft 4 kts 183°
2026-04-30 10:16 47.45206 8.55806 1415 ft 4 kts 181°
2026-04-30 10:17 47.45247 8.55839 1420 ft 4 kts 244°
2026-04-30 10:17 47.45252 8.55899 1415 ft 0 kts 276°
2026-04-30 10:22 47.45253 8.55894 1416 ft 5 kts 276°
2026-04-30 10:22 47.45261 8.55799 1418 ft 12 kts 277°
2026-04-30 10:22 47.45271 8.55661 1413 ft 16 kts 275°
2026-04-30 10:23 47.45337 8.55537 1421 ft 18 kts 334°
2026-04-30 10:23 47.45458 8.55454 1415 ft 22 kts 335°
2026-04-30 10:23 47.45605 8.55355 1414 ft 24 kts 341°
2026-04-30 10:23 47.45664 8.55397 1416 ft 6 kts 78°
2026-04-30 10:24 47.45663 8.55510 1416 ft 16 kts 96°
2026-04-30 10:24 47.45647 8.55725 1418 ft 25 kts 95°
2026-04-30 10:24 47.45628 8.55970 1417 ft 23 kts 96°
2026-04-30 10:24 47.45615 8.56196 1420 ft 19 kts 85°
2026-04-30 10:25 47.45700 8.56275 1424 ft 16 kts
2026-04-30 10:25 47.45838 8.56298 1426 ft 23 kts
2026-04-30 10:25 47.46000 8.56321 1422 ft 24 kts
2026-04-30 10:25 47.46127 8.56402 1423 ft 14 kts 16°
2026-04-30 10:26 47.46187 8.56368 1423 ft 0 kts 318°
2026-04-30 10:26 47.46187 8.56367 1423 ft 0 kts 318°
2026-04-30 10:26 47.46244 8.56290 1422 ft 28 kts 317°
2026-04-30 10:27 47.46542 8.55886 1411 ft 91 kts 317°
2026-04-30 10:27 47.47148 8.55057 1405 ft 145 kts 317°
2026-04-30 10:27 47.47976 8.53915 1631 ft 171 kts 322°
2026-04-30 10:27 47.48855 8.52781 2305 ft 166 kts 328°
2026-04-30 10:28 47.49800 8.51816 2934 ft 173 kts 332°
2026-04-30 10:28 47.50787 8.50579 3191 ft 202 kts 317°
2026-04-30 10:28 47.51553 8.48679 3530 ft 229 kts 294°
2026-04-30 10:28 47.51834 8.46307 4122 ft 240 kts 275°
2026-04-30 10:29 47.51563 8.43865 4788 ft 242 kts 243°
2026-04-30 10:29 47.50522 8.42028 5589 ft 231 kts 211°
2026-04-30 10:29 47.49037 8.41277 6297 ft 226 kts 179°
2026-04-30 10:29 47.47513 8.41688 6781 ft 222 kts 153°
2026-04-30 10:30 47.46318 8.43017 6960 ft 220 kts 126°
2026-04-30 10:30 47.45695 8.45118 6995 ft 239 kts 98°
2026-04-30 10:30 47.45603 8.47691 6972 ft 259 kts 90°
2026-04-30 10:30 47.45636 8.50378 6987 ft 263 kts 89°
2026-04-30 10:31 47.45664 8.53079 6992 ft 263 kts 90°
2026-04-30 10:31 47.45685 8.55786 7008 ft 264 kts 89°
2026-04-30 10:31 47.45786 8.58499 7376 ft 266 kts 87°
2026-04-30 10:31 47.45908 8.61235 8259 ft 266 kts 86°
2026-04-30 10:32 47.46026 8.63973 9148 ft 269 kts 86°
2026-04-30 10:32 47.46134 8.66731 9957 ft 273 kts 87°
2026-04-30 10:32 47.46242 8.69560 10708 ft 280 kts 86°
2026-04-30 10:32 47.46357 8.72543 11053 ft 301 kts 86°
2026-04-30 10:33 47.46476 8.75746 11341 ft 323 kts 86°
2026-04-30 10:33 47.46598 8.79144 11770 ft 338 kts 86°
2026-04-30 10:33 47.46587 8.82638 12499 ft 343 kts 95°
2026-04-30 10:33 47.46181 8.86140 13210 ft 350 kts 101°
2026-04-30 10:34 47.45658 8.89684 13918 ft 356 kts 101°
2026-04-30 10:34 47.45131 8.93250 14469 ft 363 kts 101°
2026-04-30 10:34 47.44599 8.96922 15113 ft 367 kts 100°
2026-04-30 10:34 47.44067 9.00626 15806 ft 370 kts 100°
2026-04-30 10:35 47.43532 9.04360 16484 ft 373 kts 100°
2026-04-30 10:35 47.42988 9.08118 17159 ft 376 kts 100°
2026-04-30 10:35 47.42438 9.11912 17837 ft 379 kts 99°
2026-04-30 10:35 47.41919 9.15739 18513 ft 381 kts 96°
2026-04-30 10:36 47.41852 9.19635 19128 ft 380 kts 81°
2026-04-30 10:36 47.42528 9.23374 19807 ft 377 kts 66°
2026-04-30 10:36 47.43615 9.26838 20482 ft 378 kts 62°
2026-04-30 10:36 47.44880 9.30243 21154 ft 379 kts 59°
2026-04-30 10:37 47.46227 9.33609 21791 ft 382 kts 58°
2026-04-30 10:37 47.47782 9.36799 22401 ft 384 kts 49°
2026-04-30 10:37 47.49709 9.39537 23055 ft 387 kts 39°
2026-04-30 10:37 47.52001 9.41642 23684 ft 391 kts 27°
2026-04-30 10:38 47.54515 9.43224 24217 ft 395 kts 23°
2026-04-30 10:38 47.57130 9.44533 24708 ft 400 kts 17°
2026-04-30 10:38 47.59887 9.45238 25201 ft 406 kts
2026-04-30 10:38 47.62676 9.45536 25710 ft 409 kts
2026-04-30 10:39 47.65530 9.45712 26219 ft 412 kts
2026-04-30 10:39 47.68406 9.45834 26709 ft 415 kts
2026-04-30 10:39 47.71301 9.45944 27201 ft 418 kts
2026-04-30 10:39 47.74215 9.46061 27677 ft 420 kts
2026-04-30 10:40 47.77147 9.46193 28175 ft 423 kts
2026-04-30 10:40 47.80099 9.46340 28621 ft 426 kts
2026-04-30 10:40 47.83071 9.46448 29064 ft 429 kts
2026-04-30 10:40 47.86067 9.46460 29473 ft 433 kts
2026-04-30 10:41 47.89048 9.46425 29901 ft 436 kts
2026-04-30 10:41 47.92086 9.46378 30329 ft 438 kts
2026-04-30 10:41 47.95143 9.46337 30685 ft 441 kts
2026-04-30 10:41 47.98218 9.46307 31031 ft 443 kts
2026-04-30 10:42 48.01308 9.46285 31372 ft 445 kts
2026-04-30 10:42 48.04416 9.46271 31704 ft 447 kts
2026-04-30 10:42 48.07533 9.46263 32008 ft 450 kts
2026-04-30 10:42 48.10627 9.46259 32313 ft 452 kts
2026-04-30 10:43 48.13776 9.46254 32615 ft 454 kts
2026-04-30 10:43 48.16942 9.46249 32900 ft 456 kts
2026-04-30 10:43 48.20118 9.46243 33186 ft 458 kts
2026-04-30 10:43 48.23308 9.46245 33455 ft 459 kts
2026-04-30 10:44 48.26510 9.46251 33748 ft 460 kts
2026-04-30 10:44 48.29713 9.46256 34052 ft 461 kts
2026-04-30 10:44 48.32919 9.46261 34267 ft 462 kts
2026-04-30 10:44 48.36078 9.46265 34302 ft 459 kts
2026-04-30 10:45 48.42457 9.46270 34298 ft 458 kts
2026-04-30 10:45 48.48833 9.46274 34301 ft 458 kts
2026-04-30 10:46 48.55127 9.46270 34307 ft 458 kts
2026-04-30 10:46 48.61507 9.46174 34303 ft 459 kts
2026-04-30 10:47 48.67848 9.46093 34305 ft 459 kts
2026-04-30 10:47 48.74232 9.46028 34313 ft 459 kts
2026-04-30 10:48 48.80614 9.45756 34315 ft 459 kts
2026-04-30 10:48 48.86996 9.45376 34322 ft 459 kts
2026-04-30 10:49 48.93379 9.45018 34330 ft 459 kts
2026-04-30 10:49 48.99719 9.44689 34348 ft 458 kts
2026-04-30 10:50 49.06095 9.44368 34353 ft 458 kts
2026-04-30 10:50 49.12472 9.44044 34356 ft 459 kts
2026-04-30 10:51 49.18848 9.43720 34360 ft 458 kts
2026-04-30 10:51 49.25180 9.43395 34354 ft 458 kts
2026-04-30 10:52 49.31550 9.43068 34356 ft 458 kts
2026-04-30 10:52 49.37921 9.42740 34365 ft 458 kts
2026-04-30 10:53 49.44286 9.42411 34373 ft 458 kts
2026-04-30 10:53 49.50620 9.42085 34380 ft 460 kts
2026-04-30 10:54 49.57045 9.41753 34387 ft 462 kts
2026-04-30 10:54 49.63452 9.41829 34391 ft 458 kts
2026-04-30 10:55 49.69787 9.42713 34390 ft 457 kts
2026-04-30 10:55 49.76069 9.43731 34399 ft 457 kts 10°
2026-04-30 10:56 49.82389 9.44769 34388 ft 457 kts
2026-04-30 10:56 49.88709 9.45792 34407 ft 456 kts
2026-04-30 10:57 49.95027 9.46810 34411 ft 456 kts
2026-04-30 10:57 50.01346 9.47829 34412 ft 456 kts
2026-04-30 10:58 50.07618 9.48844 34408 ft 456 kts
2026-04-30 10:58 50.13920 9.49892 34414 ft 455 kts 10°
2026-04-30 10:59 50.20218 9.50951 34418 ft 455 kts 10°
2026-04-30 10:59 50.26518 9.52011 34423 ft 455 kts 10°
2026-04-30 11:00 50.32755 9.53063 34420 ft 453 kts 10°
2026-04-30 11:00 50.39029 9.54120 34429 ft 453 kts 10°
2026-04-30 11:01 50.45294 9.55180 34429 ft 453 kts 10°
2026-04-30 11:01 50.51566 9.56244 34426 ft 453 kts 10°
2026-04-30 11:02 50.57829 9.57309 34432 ft 453 kts 10°
2026-04-30 11:02 50.64056 9.58371 34435 ft 453 kts 10°
2026-04-30 11:03 50.70318 9.59442 34453 ft 453 kts 10°
2026-04-30 11:04 50.79709 9.61138 34460 ft 452 kts 11°
2026-04-30 11:04 50.85956 9.62383 34457 ft 452 kts 11°
2026-04-30 11:05 50.92203 9.63620 34452 ft 453 kts 11°
2026-04-30 11:05 50.98417 9.64839 34454 ft 454 kts 11°
2026-04-30 11:06 51.04695 9.66065 34456 ft 455 kts 10°
2026-04-30 11:06 51.10977 9.67296 34457 ft 454 kts 11°
2026-04-30 11:07 51.17249 9.68531 34460 ft 454 kts 11°
2026-04-30 11:07 51.23481 9.69729 34465 ft 454 kts 10°
2026-04-30 11:08 51.29775 9.70738 34464 ft 454 kts
2026-04-30 11:08 51.36069 9.71708 34462 ft 454 kts
2026-04-30 11:09 51.42356 9.72709 34457 ft 454 kts
2026-04-30 11:09 51.48607 9.73729 34460 ft 454 kts
2026-04-30 11:10 51.54738 9.74602 34479 ft 434 kts
2026-04-30 11:10 51.60740 9.74122 34278 ft 431 kts 357°
2026-04-30 11:10 51.63677 9.73410 34075 ft 422 kts 355°
2026-04-30 11:11 51.66537 9.72655 33877 ft 411 kts 356°
2026-04-30 11:11 51.69336 9.72114 33685 ft 399 kts
2026-04-30 11:11 51.72022 9.71980 33394 ft 384 kts
2026-04-30 11:11 51.74650 9.72289 32621 ft 376 kts 11°
2026-04-30 11:12 51.77223 9.72930 31690 ft 373 kts 10°
2026-04-30 11:12 51.79853 9.72879 30485 ft 384 kts 359°
2026-04-30 11:12 51.82539 9.72825 29025 ft 389 kts
2026-04-30 11:12 51.85273 9.72937 27559 ft 398 kts
2026-04-30 11:13 51.88058 9.72335 26107 ft 410 kts 351°
2026-04-30 11:13 51.90784 9.70810 24787 ft 421 kts 338°
2026-04-30 11:13 51.93245 9.68303 23646 ft 425 kts 326°
2026-04-30 11:13 51.95528 9.65295 22449 ft 422 kts 324°
2026-04-30 11:14 51.97757 9.62238 21310 ft 417 kts 324°
2026-04-30 11:14 51.99958 9.59211 20213 ft 412 kts 324°
2026-04-30 11:14 52.02132 9.56224 19660 ft 411 kts 324°
2026-04-30 11:14 52.04325 9.53219 19421 ft 412 kts 324°
2026-04-30 11:15 52.06480 9.50257 19297 ft 398 kts 324°
2026-04-30 11:15 52.08556 9.47396 19201 ft 384 kts 324°
2026-04-30 11:15 52.10562 9.44632 19107 ft 371 kts 325°
2026-04-30 11:15 52.12476 9.41994 18943 ft 360 kts 325°
2026-04-30 11:16 52.14350 9.39408 18760 ft 345 kts 325°
2026-04-30 11:16 52.16127 9.36948 18464 ft 326 kts 326°
2026-04-30 11:16 52.17805 9.34625 18187 ft 308 kts 326°
2026-04-30 11:16 52.19393 9.32426 17963 ft 291 kts 327°
2026-04-30 11:17 52.20911 9.30328 17707 ft 284 kts 327°
2026-04-30 11:17 52.22452 9.28378 17294 ft 276 kts 337°
2026-04-30 11:17 52.24220 9.27375 16387 ft 268 kts
2026-04-30 11:17 52.26022 9.27857 15486 ft 263 kts 30°
2026-04-30 11:18 52.27402 9.29699 14762 ft 256 kts 57°
2026-04-30 11:18 52.27692 9.35113 13668 ft 250 kts 113°
2026-04-30 11:18 52.26526 9.37203 13494 ft 254 kts 141°
2026-04-30 11:19 52.24782 9.38134 13248 ft 279 kts 170°
2026-04-30 11:19 52.22819 9.37624 12993 ft 296 kts 198°
2026-04-30 11:19 52.21128 9.35670 12704 ft 305 kts 226°
2026-04-30 11:19 52.20138 9.32620 11952 ft 311 kts 257°
2026-04-30 11:20 52.20161 9.29103 10972 ft 315 kts 289°
2026-04-30 11:20 52.21236 9.26076 10086 ft 307 kts 321°
2026-04-30 11:20 52.23017 9.24406 9259 ft 290 kts 352°
2026-04-30 11:20 52.24928 9.24469 8492 ft 274 kts 23°
2026-04-30 11:21 52.26472 9.26106 7725 ft 262 kts 50°
2026-04-30 11:21 52.27922 9.27895 6906 ft 269 kts 25°
2026-04-30 11:21 52.29735 9.28600 6477 ft 268 kts 14°
2026-04-30 11:21 52.31581 9.29090 6173 ft 269 kts 14°
2026-04-30 11:22 52.33434 9.29539 5821 ft 270 kts 11°
2026-04-30 11:22 52.35313 9.29751 5398 ft 273 kts
2026-04-30 11:22 52.37216 9.29878 4956 ft 275 kts
2026-04-30 11:22 52.39124 9.29998 4571 ft 272 kts
2026-04-30 11:23 52.40951 9.30108 4397 ft 261 kts
2026-04-30 11:23 52.42726 9.30200 4286 ft 250 kts
2026-04-30 11:23 52.45989 9.30789 4055 ft 217 kts 35°
2026-04-30 11:24 52.46952 9.32454 3986 ft 195 kts 65°
2026-04-30 11:24 52.47461 9.34488 3749 ft 192 kts 81°
2026-04-30 11:24 52.47554 9.36647 3488 ft 190 kts 94°
2026-04-30 11:25 52.47436 9.40854 3173 ft 173 kts 95°
2026-04-30 11:25 52.47383 9.42684 3080 ft 151 kts 94°
2026-04-30 11:25 52.47306 9.45962 2570 ft 136 kts 94°
2026-04-30 11:26 52.47225 9.49019 2194 ft 132 kts 93°
2026-04-30 11:26 52.47187 9.50530 2041 ft 133 kts 93°
2026-04-30 11:26 52.47149 9.52052 1834 ft 132 kts 95°
2026-04-30 11:27 52.47109 9.53557 1666 ft 132 kts 93°
2026-04-30 11:27 52.47075 9.55043 1476 ft 131 kts 95°
2026-04-30 11:27 52.47035 9.56547 1270 ft 133 kts 94°
2026-04-30 11:27 52.46997 9.58047 1092 ft 131 kts 94°
2026-04-30 11:28 52.46898 9.61060 756 ft 133 kts 96°
2026-04-30 11:28 52.46872 9.62566 490 ft 134 kts 93°
2026-04-30 11:28 52.46856 9.64065 351 ft 131 kts 97°
2026-04-30 11:29 52.46818 9.65502 216 ft 121 kts 96°
2026-04-30 11:29 52.46777 9.66772 202 ft 100 kts 92°
2026-04-30 11:29 52.46736 9.68495 200 ft 57 kts 93°
2026-04-30 11:30 52.46701 9.69633 192 ft 44 kts 92°
2026-04-30 11:30 52.46621 9.69946 183 ft 16 kts 173°
2026-04-30 11:30 52.46600 9.69946 182 ft 0 kts 182°
2026-04-30 11:31 52.46599 9.69946 182 ft 1 kts 182°
2026-04-30 11:31 52.46516 9.69868 182 ft 23 kts 239°
2026-04-30 11:31 52.46459 9.69630 193 ft 22 kts 248°
2026-04-30 11:31 52.46395 9.69371 204 ft 31 kts 249°
2026-04-30 11:32 52.46313 9.69031 204 ft 32 kts 248°
2026-04-30 11:32 52.46228 9.68756 199 ft 16 kts 208°
2026-04-30 11:32 52.46130 9.68806 199 ft 17 kts 144°
2026-04-30 11:33 52.45937 9.69067 184 ft 17 kts 117°
2026-04-30 11:33 52.45934 9.69121 183 ft 0 kts 68°
2026-04-30 11:33 52.45944 9.69171 183 ft 10 kts 72°
2026-04-30 11:33 52.45972 9.69195 183 ft 3 kts 332°
2026-04-30 11:34 52.45981 9.69118 183 ft 7 kts 254°
2026-04-30 11:34 52.45971 9.69103 183 ft 0 kts 218°
2026-04-30 11:39 52.45969 9.69100 183 ft 3 kts 218°
2026-04-30 11:39 52.45952 9.69083 183 ft 3 kts 202°
2026-04-30 11:39 52.45862 9.69067 183 ft 14 kts 207°
2026-04-30 11:39 52.45854 9.69029 184 ft 3 kts 284°
2026-04-30 11:40 52.46004 9.69141 182 ft 1 kts 69°
2026-04-30 11:40 52.46004 9.69142 182 ft 0 kts 69°